Imperial Beach, CA

6:46 AM PDT on May 28, 2017 (GMT -0700)
Imperial Beach Naval Outlying Field

Weather History for KNRS - November, 2012

Change the Weather History Date:

Friday, November 30, 2012

  Actual Average Record
Temperature  
Mean Temperature 62 °F -  
Max Temperature 66 °F 62 °F 69 °F (2015)
Min Temperature 57 °F 48 °F 44 °F (2004)
Degree Days  
Heating Degree Days 4    
Growing Degree Days 12 (Base 50)    
Moisture  
Dew Point 61 °F    
Average Humidity 95    
Maximum Humidity 100    
Minimum Humidity 79    
Precipitation  
Precipitation 0.00 in - - ()
Sea Level Pressure  
Sea Level Pressure 30.14 in    
Wind  
Wind Speed 1 mph (WSW)    
Max Wind Speed 8 mph    
Max Gust Speed -    
Visibility 3 miles    
Events Fog , Rain    
Averages and records for this station are not official NWS values.
T = Trace of Precipitation, MM = Missing Value Source: NWS Daily Summary

Daily Weather History Graph

Daily Weather History Graph

Search for Another Location

Airport or City:

Trip Planner

Search our weather history database for the weather conditions in past years. The results will help you decide how hot, cold, wet, or windy it might be!

Date:

Astronomy

Nov. 30, 2012 Rise Set
Actual Time 6:32 AM PST 4:42 PM PST
Civil Twilight 6:05 AM PST 5:09 PM PST
Nautical Twilight 5:34 AM PST 5:39 PM PST
Astronomical Twilight 5:05 AM PST 6:09 PM PST
Moon 6:40 PM PST (11/30) 8:07 AM PST (11/30)
Length of Visible Light 11h 04m
Length of Day
10h 10m
Waning Gibbous, 96% of the Moon is Illuminated
Nov 30
Waning Gibbous
Dec 6
Last Quarter
Dec 13
New
Dec 19
First Quarter
Dec 28
Full

Hourly Weather History & Observations

Time (PST) Temp. Dew Point Humidity Pressure Visibility Wind Dir Wind Speed Gust Speed Precip Events Conditions
12:39 AM 59.0 °F 59.0 °F 100% 30.16 in 1.8 mi Calm Calm - N/A   Mostly Cloudy
12:46 AM 59.0 °F 57.2 °F 94% 30.16 in 2.5 mi Calm Calm - N/A   Overcast
12:56 AM 57.9 °F 57.9 °F 100% 30.15 in 2.0 mi South 3.5 mph - N/A   Overcast
1:03 AM 59.0 °F 57.2 °F 94% 30.15 in 1.0 mi Calm Calm - N/A   Overcast
1:06 AM 59.0 °F 57.2 °F 94% 30.15 in 0.8 mi Calm Calm - N/A   Overcast
1:56 AM 60.1 °F 60.1 °F 100% 30.15 in 0.2 mi Calm Calm - N/A Fog Fog
2:56 AM 60.1 °F 60.1 °F 100% 30.15 in 0.2 mi Calm Calm - N/A Fog Fog
3:56 AM 60.1 °F 60.1 °F 100% 30.14 in 0.8 mi Calm Calm - N/A   Mist
4:29 AM 60.8 °F 60.8 °F 100% 30.14 in 1.2 mi Calm Calm - N/A   Overcast
4:54 AM 60.8 °F 59.0 °F 94% 30.14 in 0.5 mi Calm Calm - N/A Fog Fog
4:56 AM 60.1 °F 59.0 °F 96% 30.14 in 0.5 mi Calm Calm - N/A Fog Fog
5:08 AM 59.0 °F 57.2 °F 94% 30.15 in 1.5 mi Calm Calm - N/A   Overcast
5:20 AM 59.0 °F 59.0 °F 100% 30.15 in 2.0 mi Calm Calm - N/A   Overcast
5:40 AM 60.8 °F 59.0 °F 94% 30.15 in 1.2 mi Calm Calm - N/A   Overcast
5:47 AM 60.8 °F 59.0 °F 94% 30.15 in 1.2 mi Calm Calm - N/A   Overcast
5:56 AM 60.1 °F 59.0 °F 96% 30.15 in 1.0 mi Calm Calm - N/A   Overcast
6:56 AM 60.1 °F 60.1 °F 100% 30.15 in 1.5 mi East 4.6 mph - N/A   Mostly Cloudy
7:22 AM 60.8 °F 60.8 °F 100% 30.15 in 2.5 mi ESE 3.5 mph - N/A   Mostly Cloudy
7:56 AM 62.1 °F 60.1 °F 93% 30.16 in 2.0 mi WSW 3.5 mph - N/A   Mostly Cloudy
8:56 AM 64.0 °F 60.1 °F 87% 30.18 in 2.5 mi WSW 3.5 mph - N/A   Mostly Cloudy
9:27 AM 64.4 °F 60.8 °F 88% 30.17 in 3.0 mi Calm Calm - N/A   Mostly Cloudy
9:56 AM 66.9 °F 60.1 °F 79% 30.17 in 4.0 mi NW 3.5 mph - N/A   Mostly Cloudy
10:56 AM 66.0 °F 60.1 °F 81% 30.17 in 4.0 mi WSW 8.1 mph - N/A   Mostly Cloudy
11:56 AM 66.0 °F 60.1 °F 81% 30.14 in 6.0 mi WSW 6.9 mph - N/A   Mostly Cloudy
12:56 PM 66.9 °F 60.1 °F 79% 30.12 in 7.0 mi SW 5.8 mph - N/A   Mostly Cloudy
1:56 PM 66.0 °F 61.0 °F 84% 30.13 in 7.0 mi SW 4.6 mph - N/A   Overcast
2:02 PM 66.2 °F 60.8 °F 83% 30.13 in 7.0 mi WSW 4.6 mph - 0.00 in Rain Light Rain
2:22 PM 66.2 °F 60.8 °F 83% 30.13 in 7.0 mi SW 5.8 mph - 0.00 in   Overcast
2:56 PM 64.9 °F 62.1 °F 90% 30.13 in 7.0 mi Variable 4.6 mph - 0.00 in   Overcast
3:18 PM 64.4 °F 62.6 °F 94% 30.13 in 5.0 mi SW 4.6 mph - 0.00 in   Light Drizzle
3:22 PM 64.4 °F 62.6 °F 94% 30.13 in 2.5 mi SW 3.5 mph - 0.00 in   Light Drizzle
3:37 PM 64.4 °F 62.6 °F 94% 30.13 in 2.0 mi SW 4.6 mph - 0.00 in Rain Light Rain
3:56 PM 64.0 °F 63.0 °F 96% 30.13 in 3.0 mi Calm Calm - 0.00 in Rain Light Rain
4:56 PM 64.9 °F 63.0 °F 93% 30.13 in 5.0 mi Calm Calm - 0.00 in Rain Light Rain
5:11 PM 64.4 °F 62.6 °F 94% 30.13 in 5.0 mi Calm Calm - 0.00 in   Overcast
5:56 PM 64.9 °F 63.0 °F 93% 30.12 in 2.0 mi Calm Calm - 0.00 in Rain Light Rain
6:05 PM 64.4 °F 64.4 °F 100% 30.12 in 1.2 mi Calm Calm - 0.00 in   Overcast
6:21 PM 64.4 °F 62.6 °F 94% 30.12 in 2.5 mi Calm Calm - 0.00 in   Overcast
6:30 PM 64.4 °F 62.6 °F 94% 30.11 in 1.2 mi Calm Calm - 0.00 in Rain Light Rain
6:41 PM 64.4 °F 64.4 °F 100% 30.11 in 2.0 mi Calm Calm - 0.00 in Rain Light Rain
6:45 PM 64.4 °F 64.4 °F 100% 30.11 in 3.0 mi Calm Calm - 0.00 in   Overcast
6:50 PM 64.4 °F 64.4 °F 100% 30.11 in 2.5 mi Calm Calm - 0.00 in   Overcast
6:56 PM 64.0 °F 64.0 °F 100% 30.11 in 2.0 mi Calm Calm - 0.00 in   Overcast
7:03 PM 64.4 °F 62.6 °F 94% 30.10 in 1.8 mi Calm Calm - N/A   Overcast
7:26 PM 64.4 °F 62.6 °F 94% 30.11 in 2.5 mi Calm Calm - N/A   Overcast
7:40 PM 62.6 °F 62.6 °F 100% 30.11 in 1.8 mi Calm Calm - N/A   Overcast
7:51 PM 63.0 °F 62.1 °F 97% 30.11 in 3.0 mi Calm Calm - N/A   Mostly Cloudy
8:00 PM 62.6 °F 62.6 °F 100% 30.11 in 3.0 mi Calm Calm - N/A   Mostly Cloudy
8:07 PM 62.6 °F 62.6 °F 100% 30.12 in 2.5 mi Calm Calm - N/A   Mostly Cloudy
8:44 PM 62.6 °F 62.6 °F 100% 30.13 in 3.0 mi WSW 5.8 mph - N/A   Overcast
8:56 PM 64.0 °F 63.0 °F 96% 30.13 in 3.0 mi West 4.6 mph - N/A   Overcast
9:03 PM 64.4 °F 62.6 °F 94% 30.14 in 2.5 mi WSW 3.5 mph - N/A   Overcast
9:33 PM 64.4 °F 62.6 °F 94% 30.14 in 1.5 mi WSW 3.5 mph - 0.00 in Rain Light Rain
9:42 PM 64.4 °F 62.6 °F 94% 30.14 in 1.8 mi Calm Calm - 0.00 in   Overcast
9:52 PM 64.4 °F 64.4 °F 100% 30.14 in 2.5 mi Calm Calm - 0.00 in   Overcast
9:56 PM 64.0 °F 63.0 °F 96% 30.14 in 3.0 mi Calm Calm - 0.00 in   Overcast
10:03 PM 64.4 °F 62.6 °F 94% 30.14 in 3.0 mi West 3.5 mph - N/A   Overcast
10:10 PM 64.4 °F 62.6 °F 94% 30.15 in 2.5 mi West 3.5 mph - N/A   Overcast
10:15 PM 64.4 °F 62.6 °F 94% 30.15 in 3.0 mi West 4.6 mph - N/A   Overcast
10:26 PM 64.4 °F 62.6 °F 94% 30.15 in 2.5 mi West 4.6 mph - N/A   Overcast
10:37 PM 64.4 °F 62.6 °F 94% 30.15 in 1.2 mi West 4.6 mph - N/A   Overcast
10:47 PM 62.6 °F 62.6 °F 100% 30.15 in 0.5 mi West 3.5 mph - N/A Fog Fog
10:56 PM 64.0 °F 63.0 °F 96% 30.15 in 1.0 mi West 4.6 mph - N/A   Mist
11:07 PM 64.4 °F 64.4 °F 100% 30.15 in 0.5 mi Calm Calm - N/A Fog Fog
11:54 PM 63.0 °F 63.0 °F 100% 30.14 in 2.5 mi Calm Calm - N/A   Overcast